When you browse on this site, cookies collect data to enhance your experience and personalize the content and advertising you see.
Visit our Privacy Policy to learn more. By continuing to use the site, you agree to this use of cookies and data.
  • In United Kingdom
  • List of Countries
  • For 7 days
  • Water Temperature
  • Satellite Maps
  • Weather Map
  • Weather Widgets
  • user-avatar
    Login

    Hourly Weather Thimphu

    Today, 26 May, Sunday

    Time Temperature Precipitation Wind Pressure Humidity
    00:00 +8°C° 0 mm 0 mps 522 mmHg 95%
    01:00 +8°C° 0.1 mm 0 mps 522 mmHg 95%
    02:00 +8°C° 0.1 mm 0 mps 521 mmHg 94%
    03:00 +8°C° 0.1 mm 1 mps 521 mmHg 93%
    04:00 +8°C° 0.1 mm 1 mps 521 mmHg 91%
    05:00 +9°C° 0.1 mm 1 mps 522 mmHg 89%
    06:00 +10°C° 0 mm 1 mps 522 mmHg 86%
    07:00 +12°C° 0 mm 1 mps 524 mmHg 77%
    08:00 +14°C° 0 mm 1 mps 525 mmHg 68%
    09:00 +16°C° 0 mm 1 mps 527 mmHg 59%
    10:00 +18°C° 0.2 mm 1 mps 527 mmHg 56%
    11:00 +17°C° 0.2 mm 2 mps 527 mmHg 54%
    12:00 +18°C° 0.2 mm 2 mps 527 mmHg 52%
    13:00 +18°C° 0.2 mm 2 mps 526 mmHg 53%
    14:00 +17°C° 0.2 mm 2 mps 526 mmHg 55%
    15:00 +17°C° 0.2 mm 2 mps 526 mmHg 56%
    16:00 +16°C° 0.3 mm 2 mps 525 mmHg 63%
    17:00 +15°C° 0.3 mm 2 mps 524 mmHg 71%
    18:00 +13°C° 0.3 mm 2 mps 523 mmHg 78%
    19:00 +12°C° 0.2 mm 1 mps 523 mmHg 83%
    20:00 +11°C° 0.2 mm 1 mps 523 mmHg 88%
    21:00 +9°C° 0.2 mm 0 mps 523 mmHg 93%
    22:00 +10°C° 0.1 mm 1 mps 523 mmHg 93%
    23:00 +10°C° 0.1 mm 1 mps 523 mmHg 92%

    Tomorrow, 27 May, Monday

    Time Temperature Precipitation Wind Pressure Humidity
    00:00 +10°C° 0.1 mm 1 mps 523 mmHg 91%
    01:00 +9°C° 0 mm 1 mps 523 mmHg 91%
    02:00 +9°C° 0 mm 1 mps 522 mmHg 90%
    03:00 +9°C° 0 mm 1 mps 522 mmHg 89%
    04:00 +9°C° 0 mm 1 mps 522 mmHg 87%
    05:00 +9°C° 0 mm 1 mps 523 mmHg 86%
    06:00 +8°C° 0 mm 0 mps 523 mmHg 84%
    07:00 +11°C° 0.1 mm 1 mps 524 mmHg 78%
    08:00 +13°C° 0.1 mm 1 mps 526 mmHg 71%
    09:00 +15°C° 0.1 mm 2 mps 527 mmHg 65%
    10:00 +16°C° 0.3 mm 2 mps 527 mmHg 65%
    11:00 +16°C° 0.3 mm 2 mps 527 mmHg 64%
    12:00 +17°C° 0.3 mm 2 mps 527 mmHg 63%
    13:00 +17°C° 0.5 mm 2 mps 527 mmHg 63%
    14:00 +17°C° 0.5 mm 2 mps 526 mmHg 64%
    15:00 +17°C° 0.5 mm 2 mps 526 mmHg 64%
    16:00 +16°C° 0.4 mm 2 mps 525 mmHg 69%
    17:00 +15°C° 0.4 mm 2 mps 525 mmHg 73%
    18:00 +14°C° 0.4 mm 1 mps 524 mmHg 78%
    19:00 +13°C° 0.2 mm 1 mps 524 mmHg 83%
    20:00 +11°C° 0.2 mm 1 mps 524 mmHg 89%
    21:00 +9°C° 0.2 mm 0 mps 524 mmHg 95%
    22:00 +9°C° 0 mm 0 mps 524 mmHg 94%
    23:00 +9°C° 0 mm 0 mps 523 mmHg 93%

    Day after tomorrow, 28 May, Tuesday

    Time Temperature Precipitation Wind Pressure Humidity
    00:00 +8°C° 0 mm 0 mps 523 mmHg 92%
    01:00 +9°C° 0 mm 1 mps 523 mmHg 91%
    02:00 +8°C° 0 mm 1 mps 522 mmHg 89%
    03:00 +8°C° 0 mm 1 mps 522 mmHg 88%
    04:00 +8°C° 0 mm 1 mps 522 mmHg 85%
    05:00 +9°C° 0 mm 1 mps 523 mmHg 82%
    06:00 +9°C° 0 mm 1 mps 523 mmHg 80%
    07:00 +11°C° 0 mm 1 mps 525 mmHg 71%
    08:00 +14°C° 0 mm 1 mps 526 mmHg 62%
    09:00 +18°C° 0 mm 1 mps 528 mmHg 54%
    10:00 +17°C° 0.2 mm 2 mps 528 mmHg 54%
    11:00 +17°C° 0.2 mm 2 mps 528 mmHg 54%
    12:00 +18°C° 0.2 mm 2 mps 528 mmHg 55%
    13:00 +18°C° 0.3 mm 2 mps 528 mmHg 55%
    14:00 +18°C° 0.3 mm 2 mps 527 mmHg 56%
    15:00 +18°C° 0.3 mm 2 mps 527 mmHg 57%
    16:00 +16°C° 0.2 mm 2 mps 526 mmHg 63%
    17:00 +15°C° 0.2 mm 2 mps 525 mmHg 69%
    18:00 +14°C° 0.2 mm 1 mps 524 mmHg 75%
    19:00 +13°C° 0.1 mm 1 mps 524 mmHg 81%
    20:00 +11°C° 0.1 mm 1 mps 524 mmHg 87%
    21:00 +9°C° 0.1 mm 0 mps 523 mmHg 92%
    22:00 +10°C° 0 mm 1 mps 523 mmHg 91%
    23:00 +9°C° 0 mm 1 mps 523 mmHg 89%

    29 May, Wednesday

    Time Temperature Precipitation Wind Pressure Humidity
    00:00 +9°C° 0 mm 1 mps 523 mmHg 88%
    01:00 +9°C° 0 mm 1 mps 523 mmHg 85%
    02:00 +8°C° 0 mm 1 mps 522 mmHg 83%
    03:00 +8°C° 0 mm 1 mps 522 mmHg 81%
    04:00 +8°C° 0 mm 1 mps 522 mmHg 79%
    05:00 +8°C° 0 mm 1 mps 523 mmHg 78%
    06:00 +9°C° 0 mm 1 mps 523 mmHg 76%
    07:00 +12°C° 0 mm 1 mps 525 mmHg 67%
    08:00 +14°C° 0 mm 1 mps 527 mmHg 59%
    09:00 +18°C° 0 mm 1 mps 528 mmHg 50%
    10:00 +19°C° 0.2 mm 1 mps 528 mmHg 51%
    11:00 +18°C° 0.2 mm 2 mps 528 mmHg 52%
    12:00 +18°C° 0.2 mm 2 mps 528 mmHg 52%
    13:00 +18°C° 0.3 mm 2 mps 527 mmHg 53%
    14:00 +18°C° 0.3 mm 2 mps 527 mmHg 55%
    15:00 +18°C° 0.3 mm 2 mps 526 mmHg 56%
    16:00 +17°C° 0.3 mm 2 mps 525 mmHg 62%
    17:00 +15°C° 0.3 mm 2 mps 525 mmHg 67%
    18:00 +14°C° 0.3 mm 2 mps 524 mmHg 73%
    19:00 +13°C° 0.2 mm 1 mps 524 mmHg 79%
    20:00 +11°C° 0.2 mm 1 mps 523 mmHg 86%
    21:00 +10°C° 0.2 mm 1 mps 523 mmHg 92%
    22:00 +10°C° 0 mm 1 mps 523 mmHg 90%
    23:00 +9°C° 0 mm 1 mps 523 mmHg 89%

    30 May, Thursday

    Time Temperature Precipitation Wind Pressure Humidity
    00:00 +9°C° 0 mm 1 mps 522 mmHg 87%
    01:00 +8°C° 0 mm 1 mps 522 mmHg 86%
    02:00 +8°C° 0 mm 1 mps 522 mmHg 84%
    03:00 +8°C° 0 mm 1 mps 521 mmHg 82%
    04:00 +8°C° 0 mm 1 mps 522 mmHg 81%
    05:00 +9°C° 0 mm 1 mps 522 mmHg 79%
    06:00 +9°C° 0 mm 1 mps 523 mmHg 77%
    07:00 +12°C° 0.1 mm 1 mps 525 mmHg 69%
    08:00 +14°C° 0.1 mm 1 mps 526 mmHg 61%
    09:00 +18°C° 0.1 mm 1 mps 528 mmHg 53%
    10:00 +17°C° 0.4 mm 2 mps 528 mmHg 54%
    11:00 +17°C° 0.4 mm 2 mps 528 mmHg 55%
    12:00 +18°C° 0.4 mm 2 mps 528 mmHg 56%
    13:00 +17°C° 0.9 mm 2 mps 527 mmHg 60%
    14:00 +17°C° 0.9 mm 2 mps 526 mmHg 64%
    15:00 +16°C° 0.9 mm 2 mps 525 mmHg 68%
    16:00 +15°C° 0.6 mm 2 mps 525 mmHg 72%
    17:00 +14°C° 0.6 mm 2 mps 524 mmHg 76%
    18:00 +13°C° 0.6 mm 2 mps 524 mmHg 80%
    19:00 +12°C° 0.2 mm 1 mps 524 mmHg 84%
    20:00 +11°C° 0.2 mm 1 mps 523 mmHg 88%
    21:00 +10°C° 0.2 mm 1 mps 523 mmHg 92%
    22:00 +9°C° 0 mm 1 mps 523 mmHg 91%
    23:00 +9°C° 0 mm 1 mps 523 mmHg 90%

    31 May, Friday

    Time Temperature Precipitation Wind Pressure Humidity
    00:00 +8°C° 0 mm 1 mps 523 mmHg 90%
    01:00 +8°C° 0 mm 1 mps 522 mmHg 89%
    02:00 +8°C° 0 mm 1 mps 522 mmHg 88%
    03:00 +8°C° 0 mm 1 mps 522 mmHg 87%
    04:00 +8°C° 0 mm 1 mps 522 mmHg 85%
    05:00 +8°C° 0 mm 0 mps 523 mmHg 83%
    06:00 +8°C° 0 mm 0 mps 523 mmHg 80%
    07:00 +12°C° 0.1 mm 1 mps 525 mmHg 73%
    08:00 +14°C° 0.1 mm 1 mps 527 mmHg 65%
    09:00 +16°C° 0.1 mm 2 mps 528 mmHg 57%
    10:00 +17°C° 0.5 mm 2 mps 528 mmHg 59%
    11:00 +17°C° 0.5 mm 2 mps 528 mmHg 61%
    12:00 +17°C° 0.5 mm 2 mps 528 mmHg 62%
    13:00 +17°C° 1.4 mm 2 mps 527 mmHg 66%
    14:00 +16°C° 1.4 mm 2 mps 526 mmHg 69%
    15:00 +16°C° 1.4 mm 2 mps 525 mmHg 72%
    16:00 +15°C° 0.9 mm 1 mps 525 mmHg 75%
    17:00 +14°C° 0.9 mm 1 mps 524 mmHg 78%
    18:00 +13°C° 0.9 mm 1 mps 524 mmHg 82%
    19:00 +12°C° 0.5 mm 1 mps 524 mmHg 86%
    20:00 +10°C° 0.5 mm 0 mps 524 mmHg 90%
    21:00 +9°C° 0.5 mm 0 mps 524 mmHg 94%
    22:00 +9°C° 0.2 mm 0 mps 523 mmHg 93%
    23:00 +9°C° 0.2 mm 0 mps 523 mmHg 93%
    Show more